TimeEST,TemperatureF,Dew PointF,Humidity,Sea Level PressureIn,VisibilityMPH,Wind Direction,Wind SpeedMPH,Gust SpeedMPH,PrecipitationIn,Events,Conditions,WindDirDegrees,DateUTC
12:54 AM,7.0,-9.0,48,29.97,10.0,ENE,4.6,-,N/A,,Partly Cloudy,70,2013-02-05 05:54:00
1:54 AM,7.0,-9.0,48,29.98,10.0,ENE,5.8,-,N/A,,Clear,60,2013-02-05 06:54:00
2:54 AM,6.1,-7.1,55,29.99,10.0,ENE,4.6,-,N/A,,Clear,70,2013-02-05 07:54:00
3:54 AM,3.9,-7.1,60,29.99,10.0,ENE,4.6,-,N/A,,Clear,70,2013-02-05 08:54:00
4:54 AM,1.9,-7.1,66,30.01,10.0,East,3.5,-,N/A,,Clear,80,2013-02-05 09:54:00
5:54 AM,1.9,-8.0,63,30.02,10.0,Calm,Calm,-,N/A,,Clear,0,2013-02-05 10:54:00
6:54 AM,-0.0,-8.0,69,30.03,10.0,East,3.5,-,N/A,,Clear,80,2013-02-05 11:54:00
7:54 AM,1.9,-6.0,69,30.05,10.0,East,4.6,-,N/A,,Clear,100,2013-02-05 12:54:00
8:54 AM,6.1,-7.1,55,30.06,10.0,ENE,3.5,-,N/A,,Clear,70,2013-02-05 13:54:00
9:54 AM,10.0,-9.0,42,30.06,10.0,Calm,Calm,-,N/A,,Clear,0,2013-02-05 14:54:00
10:54 AM,12.0,-8.0,41,30.06,10.0,Calm,Calm,-,N/A,,Clear,0,2013-02-05 15:54:00
11:54 AM,15.1,-6.0,39,30.03,10.0,South,4.6,-,N/A,,Clear,180,2013-02-05 16:54:00
12:54 PM,18.0,-6.0,35,30.01,10.0,SSW,5.8,-,N/A,,Partly Cloudy,200,2013-02-05 17:54:00
1:54 PM,19.9,-6.0,32,29.99,10.0,Calm,Calm,-,N/A,,Clear,0,2013-02-05 18:54:00
2:54 PM,19.9,-6.0,32,29.97,10.0,SSW,3.5,-,N/A,,Partly Cloudy,210,2013-02-05 19:54:00
3:54 PM,21.0,-6.0,30,29.96,10.0,East,3.5,-,N/A,,Clear,90,2013-02-05 20:54:00
4:54 PM,19.9,-7.1,30,29.96,10.0,Calm,Calm,-,N/A,,Mostly Cloudy,0,2013-02-05 21:54:00
5:54 PM,19.0,1.0,46,29.94,10.0,North,4.6,-,N/A,,Scattered Clouds,350,2013-02-05 22:54:00
6:54 PM,19.0,-0.0,43,29.93,10.0,Calm,Calm,-,N/A,,Overcast,0,2013-02-05 23:54:00
7:54 PM,19.0,1.0,46,29.93,10.0,Calm,Calm,-,N/A,,Overcast,0,2013-02-06 00:54:00
8:54 PM,19.0,1.9,47,29.93,10.0,Calm,Calm,-,N/A,,Overcast,0,2013-02-06 01:54:00
9:54 PM,19.0,3.9,52,29.93,10.0,Calm,Calm,-,N/A,,Mostly Cloudy,0,2013-02-06 02:54:00
10:54 PM,18.0,1.0,48,29.91,10.0,Calm,Calm,-,N/A,,Overcast,0,2013-02-06 03:54:00
11:54 PM,19.0,3.0,50,29.90,10.0,Calm,Calm,-,N/A,,Overcast,0,2013-02-06 04:54:00